Year,Month,Day,Hour,Minute,Value (Times are PST for temperature in C)
2011,05,28,00,00,8.70
2011,05,28,00,01,8.70
2011,05,28,00,02,8.70
2011,05,28,00,03,8.70
2011,05,28,00,04,8.70
2011,05,28,00,05,8.70
2011,05,28,00,06,8.70
2011,05,28,00,07,8.70
2011,05,28,00,08,8.70
2011,05,28,00,09,8.70
2011,05,28,00,10,8.60
2011,05,28,00,11,8.60
2011,05,28,00,12,8.60
2011,05,28,00,13,8.60
2011,05,28,00,14,8.60
2011,05,28,00,15,8.60
2011,05,28,00,16,8.60
2011,05,28,00,17,8.60
2011,05,28,00,18,8.60
2011,05,28,00,19,8.50
2011,05,28,00,20,8.50
2011,05,28,00,21,8.50
2011,05,28,00,22,8.50
2011,05,28,00,23,8.50
2011,05,28,00,24,8.40
2011,05,28,00,25,8.40
2011,05,28,00,26,8.40
2011,05,28,00,27,8.40
2011,05,28,00,28,8.30
2011,05,28,00,29,8.30
2011,05,28,00,30,8.30
2011,05,28,00,31,8.20
2011,05,28,00,32,8.20
2011,05,28,00,33,8.20
2011,05,28,00,34,8.20
2011,05,28,00,35,8.20
2011,05,28,00,36,8.20
2011,05,28,00,37,8.20
2011,05,28,00,38,8.20
2011,05,28,00,39,8.20
2011,05,28,00,40,8.20
2011,05,28,00,41,8.20
2011,05,28,00,42,8.20
2011,05,28,00,43,8.20
2011,05,28,00,44,8.20
2011,05,28,00,45,8.20
2011,05,28,00,46,8.20
2011,05,28,00,47,8.20
2011,05,28,00,48,8.20
2011,05,28,00,49,8.20
2011,05,28,00,50,8.20
2011,05,28,00,51,8.20
2011,05,28,00,52,8.20
2011,05,28,00,53,8.20
2011,05,28,00,54,8.20
2011,05,28,00,55,8.20
2011,05,28,00,56,8.20
2011,05,28,00,57,8.20
2011,05,28,00,58,8.20
2011,05,28,00,59,8.20
2011,05,28,01,00,8.20
2011,05,28,01,01,8.20
2011,05,28,01,02,8.30
2011,05,28,01,03,8.30
2011,05,28,01,04,8.30
2011,05,28,01,05,8.30
2011,05,28,01,06,8.20
2011,05,28,01,07,8.20
2011,05,28,01,08,8.20
2011,05,28,01,09,8.20
2011,05,28,01,10,8.20
2011,05,28,01,11,8.20
2011,05,28,01,12,8.20
2011,05,28,01,13,8.20
2011,05,28,01,14,8.20
2011,05,28,01,15,8.20
2011,05,28,01,16,8.20
2011,05,28,01,17,8.20
2011,05,28,01,18,8.20
2011,05,28,01,19,8.20
2011,05,28,01,20,8.20
2011,05,28,01,21,8.20
2011,05,28,01,22,8.20
2011,05,28,01,23,8.20
2011,05,28,01,24,8.20
2011,05,28,01,25,8.20
2011,05,28,01,26,8.30
2011,05,28,01,27,8.30
2011,05,28,01,28,8.30
2011,05,28,01,29,8.30
2011,05,28,01,30,8.30
2011,05,28,01,31,8.30
2011,05,28,01,32,8.30
2011,05,28,01,33,8.30
2011,05,28,01,34,8.30
2011,05,28,01,35,8.30
2011,05,28,01,36,8.30
2011,05,28,01,37,8.30
2011,05,28,01,38,8.30
2011,05,28,01,39,8.30
2011,05,28,01,40,8.30
2011,05,28,01,41,8.30
2011,05,28,01,42,8.30
2011,05,28,01,43,8.30
2011,05,28,01,44,8.30
2011,05,28,01,45,8.30
2011,05,28,01,46,8.30
2011,05,28,01,47,8.30
2011,05,28,01,48,8.30
2011,05,28,01,49,8.30
2011,05,28,01,50,8.30
2011,05,28,01,51,8.30
2011,05,28,01,52,8.30
2011,05,28,01,53,8.30
2011,05,28,01,54,8.30
2011,05,28,01,55,8.30
2011,05,28,01,56,8.20
2011,05,28,01,57,8.20
2011,05,28,01,58,8.20
2011,05,28,01,59,8.20
2011,05,28,02,00,8.20
2011,05,28,02,01,8.20
2011,05,28,02,02,8.20
2011,05,28,02,03,8.20
2011,05,28,02,04,8.20
2011,05,28,02,05,8.20
2011,05,28,02,06,8.20
2011,05,28,02,07,8.20
2011,05,28,02,08,8.20
2011,05,28,02,09,8.20
2011,05,28,02,10,8.20
2011,05,28,02,11,8.10
2011,05,28,02,12,8.10
2011,05,28,02,13,8.10
2011,05,28,02,14,8.10
2011,05,28,02,15,8.10
2011,05,28,02,16,8.10
2011,05,28,02,17,8.10
2011,05,28,02,18,8.10
2011,05,28,02,19,8.10
2011,05,28,02,20,8.00
2011,05,28,02,21,8.00
2011,05,28,02,22,8.00
2011,05,28,02,23,8.00
2011,05,28,02,24,8.00
2011,05,28,02,25,7.90
2011,05,28,02,26,7.90
2011,05,28,02,27,7.90
2011,05,28,02,28,7.80
2011,05,28,02,29,7.80
2011,05,28,02,30,7.80
2011,05,28,02,31,7.80
2011,05,28,02,32,7.80
2011,05,28,02,33,7.80
2011,05,28,02,34,7.80
2011,05,28,02,35,7.70
2011,05,28,02,36,7.70
2011,05,28,02,37,7.70
2011,05,28,02,38,7.60
2011,05,28,02,39,7.60
2011,05,28,02,40,7.60
2011,05,28,02,41,7.60
2011,05,28,02,42,7.60
2011,05,28,02,43,7.50
2011,05,28,02,44,7.50
2011,05,28,02,45,7.50
2011,05,28,02,46,7.50
2011,05,28,02,47,7.40
2011,05,28,02,48,7.40
2011,05,28,02,49,7.40
2011,05,28,02,50,7.40
2011,05,28,02,51,7.30
2011,05,28,02,52,7.30
2011,05,28,02,53,7.30
2011,05,28,02,54,7.30
2011,05,28,02,55,7.30
2011,05,28,02,56,7.30
2011,05,28,02,57,7.30
2011,05,28,02,58,7.30
2011,05,28,02,59,7.30
2011,05,28,03,00,7.30
2011,05,28,03,01,7.30
2011,05,28,03,02,7.30
2011,05,28,03,03,7.30
2011,05,28,03,04,7.30
2011,05,28,03,05,7.30
2011,05,28,03,06,7.30
2011,05,28,03,07,7.30
2011,05,28,03,08,7.30
2011,05,28,03,09,7.30
2011,05,28,03,10,7.20
2011,05,28,03,11,7.20
2011,05,28,03,12,7.10
2011,05,28,03,13,7.10
2011,05,28,03,14,7.00
2011,05,28,03,15,7.00
2011,05,28,03,16,7.00
2011,05,28,03,17,6.90
2011,05,28,03,18,6.90
2011,05,28,03,19,6.90
2011,05,28,03,20,6.90
2011,05,28,03,21,6.90
2011,05,28,03,22,6.90
2011,05,28,03,23,6.90
2011,05,28,03,24,6.90
2011,05,28,03,25,6.90
2011,05,28,03,26,6.90
2011,05,28,03,27,6.80
2011,05,28,03,28,6.80
2011,05,28,03,29,6.80
2011,05,28,03,30,6.80
2011,05,28,03,31,6.80
2011,05,28,03,32,6.80
2011,05,28,03,33,6.80
2011,05,28,03,34,6.80
2011,05,28,03,35,6.80
2011,05,28,03,36,6.80
2011,05,28,03,37,6.80
2011,05,28,03,38,6.80
2011,05,28,03,39,6.80
2011,05,28,03,40,6.80
2011,05,28,03,41,6.80
2011,05,28,03,42,6.80
2011,05,28,03,43,6.80
2011,05,28,03,44,6.80
2011,05,28,03,45,6.80
2011,05,28,03,46,6.80
2011,05,28,03,47,6.80
2011,05,28,03,48,6.80
2011,05,28,03,49,6.80
2011,05,28,03,50,6.80
2011,05,28,03,51,6.80
2011,05,28,03,52,6.80
2011,05,28,03,53,6.80
2011,05,28,03,54,6.80
2011,05,28,03,55,6.80
2011,05,28,03,56,6.80
2011,05,28,03,57,6.80
2011,05,28,03,58,6.80
2011,05,28,03,59,6.80
2011,05,28,04,00,6.80
2011,05,28,04,01,6.90
2011,05,28,04,02,6.90
2011,05,28,04,03,6.90
2011,05,28,04,04,6.90
2011,05,28,04,05,7.00
2011,05,28,04,06,7.00
2011,05,28,04,07,7.00
2011,05,28,04,08,7.00
2011,05,28,04,09,7.00
2011,05,28,04,10,7.00
2011,05,28,04,11,7.00
2011,05,28,04,12,7.10
2011,05,28,04,13,7.10
2011,05,28,04,14,7.10
2011,05,28,04,15,7.10
2011,05,28,04,16,7.10
2011,05,28,04,17,7.10
2011,05,28,04,18,7.10
2011,05,28,04,19,7.10
2011,05,28,04,20,7.10
2011,05,28,04,21,7.10
2011,05,28,04,22,7.10
2011,05,28,04,23,7.10
2011,05,28,04,24,7.10
2011,05,28,04,25,7.10
2011,05,28,04,26,7.10
2011,05,28,04,27,7.10
2011,05,28,04,28,7.10
2011,05,28,04,29,7.10
2011,05,28,04,30,7.10
2011,05,28,04,31,7.10
2011,05,28,04,32,7.10
2011,05,28,04,33,7.10
2011,05,28,04,34,7.20
2011,05,28,04,35,7.20
2011,05,28,04,36,7.20
2011,05,28,04,37,7.20
2011,05,28,04,38,7.20
2011,05,28,04,39,7.20
2011,05,28,04,40,7.20
2011,05,28,04,41,7.20
2011,05,28,04,42,7.30
2011,05,28,04,43,7.30
2011,05,28,04,44,7.30
2011,05,28,04,45,7.30
2011,05,28,04,46,7.30
2011,05,28,04,47,7.30
2011,05,28,04,48,7.30
2011,05,28,04,49,7.30
2011,05,28,04,50,7.30
2011,05,28,04,51,7.30
2011,05,28,04,52,7.30
2011,05,28,04,53,7.30
2011,05,28,04,54,7.30
2011,05,28,04,55,7.30
2011,05,28,04,56,7.30
2011,05,28,04,57,7.40
2011,05,28,04,58,7.40
2011,05,28,04,59,7.40
2011,05,28,05,00,7.40
2011,05,28,05,01,7.40
2011,05,28,05,02,7.40
2011,05,28,05,03,7.40
2011,05,28,05,04,7.40
2011,05,28,05,05,7.40
2011,05,28,05,06,7.40
2011,05,28,05,07,7.40
2011,05,28,05,08,7.40
2011,05,28,05,09,7.40
2011,05,28,05,10,7.40
2011,05,28,05,11,7.40
2011,05,28,05,12,7.40
2011,05,28,05,13,7.40
2011,05,28,05,14,7.40
2011,05,28,05,15,7.40
2011,05,28,05,16,7.40
2011,05,28,05,17,7.40
2011,05,28,05,18,7.40
2011,05,28,05,19,7.40
2011,05,28,05,20,7.40
2011,05,28,05,21,7.40
2011,05,28,05,22,7.30
2011,05,28,05,23,7.30
2011,05,28,05,24,7.30
2011,05,28,05,25,7.30
2011,05,28,05,26,7.30
2011,05,28,05,27,7.30
2011,05,28,05,28,7.30
2011,05,28,05,29,7.30
2011,05,28,05,30,7.30
2011,05,28,05,31,7.30
2011,05,28,05,32,7.30
2011,05,28,05,33,7.30
2011,05,28,05,34,7.30
2011,05,28,05,35,7.30
2011,05,28,05,36,7.20
2011,05,28,05,37,7.20
2011,05,28,05,38,7.20
2011,05,28,05,39,7.20
2011,05,28,05,40,7.20
2011,05,28,05,41,7.10
2011,05,28,05,42,7.10
2011,05,28,05,43,7.10
2011,05,28,05,44,7.10
2011,05,28,05,45,7.00
2011,05,28,05,46,7.00
2011,05,28,05,47,7.00
2011,05,28,05,48,7.00
2011,05,28,05,49,7.00
2011,05,28,05,50,7.00
2011,05,28,05,51,7.00
2011,05,28,05,52,6.90
2011,05,28,05,53,6.90
2011,05,28,05,54,6.90
2011,05,28,05,55,6.90
2011,05,28,05,56,6.90
2011,05,28,05,57,6.90
2011,05,28,05,58,6.90
2011,05,28,05,59,6.90
2011,05,28,06,00,6.80
2011,05,28,06,01,6.80
2011,05,28,06,02,6.80
2011,05,28,06,03,6.80
2011,05,28,06,04,6.80
2011,05,28,06,05,6.90
2011,05,28,06,06,6.90
2011,05,28,06,07,6.90
2011,05,28,06,08,6.90
2011,05,28,06,09,6.90
2011,05,28,06,10,6.90
2011,05,28,06,11,6.90
2011,05,28,06,12,7.00
2011,05,28,06,13,7.00
2011,05,28,06,14,7.00
2011,05,28,06,15,7.00
2011,05,28,06,16,7.10
2011,05,28,06,17,7.10
2011,05,28,06,18,7.10
2011,05,28,06,19,7.10
2011,05,28,06,20,7.10
2011,05,28,06,21,7.20
2011,05,28,06,22,7.20
2011,05,28,06,23,7.30
2011,05,28,06,24,7.40
2011,05,28,06,25,7.50
2011,05,28,06,26,7.50
2011,05,28,06,27,7.60
2011,05,28,06,28,7.70
2011,05,28,06,29,7.80
2011,05,28,06,30,7.80
2011,05,28,06,31,7.80
2011,05,28,06,32,7.80
2011,05,28,06,33,7.90
2011,05,28,06,34,7.90
2011,05,28,06,35,7.90
2011,05,28,06,36,7.90
2011,05,28,06,37,7.90
2011,05,28,06,38,7.90
2011,05,28,06,39,7.90
2011,05,28,06,40,7.90
2011,05,28,06,41,7.90
2011,05,28,06,42,7.90
2011,05,28,06,43,7.90
2011,05,28,06,44,7.90
2011,05,28,06,45,8.00
2011,05,28,06,46,8.00
2011,05,28,06,47,8.00
2011,05,28,06,48,8.00
2011,05,28,06,49,8.00
2011,05,28,06,50,8.10
2011,05,28,06,51,8.10
2011,05,28,06,52,8.10
2011,05,28,06,53,8.10
2011,05,28,06,54,8.10
2011,05,28,06,55,8.10
2011,05,28,06,56,8.20
2011,05,28,06,57,8.20
2011,05,28,06,58,8.20
2011,05,28,06,59,8.20
2011,05,28,07,00,8.20
2011,05,28,07,01,8.20
2011,05,28,07,02,8.20
2011,05,28,07,03,8.20
2011,05,28,07,04,8.20
2011,05,28,07,05,8.30
2011,05,28,07,06,8.30
2011,05,28,07,07,8.30
2011,05,28,07,08,8.30
2011,05,28,07,09,8.30
2011,05,28,07,10,8.30
2011,05,28,07,11,8.30
2011,05,28,07,12,8.40
2011,05,28,07,13,8.40
2011,05,28,07,14,8.40
2011,05,28,07,15,8.40
2011,05,28,07,16,8.50
2011,05,28,07,17,8.50
2011,05,28,07,18,8.50
2011,05,28,07,19,8.50
2011,05,28,07,20,8.50
2011,05,28,07,21,8.60
2011,05,28,07,22,8.60
2011,05,28,07,23,8.60
2011,05,28,07,24,8.60
2011,05,28,07,25,8.60
2011,05,28,07,26,8.60
2011,05,28,07,27,8.70
2011,05,28,07,28,8.70
2011,05,28,07,29,8.70
2011,05,28,07,30,8.70
2011,05,28,07,31,8.70
2011,05,28,07,32,8.70
2011,05,28,07,33,8.70
2011,05,28,07,34,8.70
2011,05,28,07,35,8.70
2011,05,28,07,36,8.70
2011,05,28,07,37,8.70
2011,05,28,07,38,8.70
2011,05,28,07,39,8.70
2011,05,28,07,40,8.70
2011,05,28,07,41,8.70
2011,05,28,07,42,8.70
2011,05,28,07,43,8.70
2011,05,28,07,44,8.70
2011,05,28,07,45,8.70
2011,05,28,07,46,8.70
2011,05,28,07,47,8.70
2011,05,28,07,48,8.70
2011,05,28,07,49,8.70
2011,05,28,07,50,8.70
2011,05,28,07,51,8.70
2011,05,28,07,52,8.70
2011,05,28,07,53,8.70
2011,05,28,07,54,8.70
2011,05,28,07,55,8.70
2011,05,28,07,56,8.70
2011,05,28,07,57,8.70
2011,05,28,07,58,8.70
2011,05,28,07,59,8.70
2011,05,28,08,00,8.80
2011,05,28,08,01,8.80
2011,05,28,08,02,8.80
2011,05,28,08,03,8.80
2011,05,28,08,04,8.80
2011,05,28,08,05,8.80
2011,05,28,08,06,8.80
2011,05,28,08,07,8.80
2011,05,28,08,08,8.90
2011,05,28,08,09,8.90
2011,05,28,08,10,9.00
2011,05,28,08,11,9.00
2011,05,28,08,12,9.10
2011,05,28,08,13,9.10
2011,05,28,08,14,9.10
2011,05,28,08,15,9.20
2011,05,28,08,16,9.20
2011,05,28,08,17,9.30
2011,05,28,08,18,9.30
2011,05,28,08,19,9.40
2011,05,28,08,20,9.40
2011,05,28,08,21,9.50
2011,05,28,08,22,9.60
2011,05,28,08,23,9.70
2011,05,28,08,24,9.70
2011,05,28,08,25,9.70
2011,05,28,08,26,9.80
2011,05,28,08,27,9.80
2011,05,28,08,28,9.80
2011,05,28,08,29,9.90
2011,05,28,08,30,9.90
2011,05,28,08,31,10.00
2011,05,28,08,32,10.10
2011,05,28,08,33,10.10
2011,05,28,08,34,10.10
2011,05,28,08,35,10.10
2011,05,28,08,36,10.10
2011,05,28,08,37,10.00
2011,05,28,08,38,10.10
2011,05,28,08,39,10.10
2011,05,28,08,40,10.10
2011,05,28,08,41,10.10
2011,05,28,08,42,10.10
2011,05,28,08,43,10.00
2011,05,28,08,44,9.90
2011,05,28,08,45,10.00
2011,05,28,08,46,10.10
2011,05,28,08,47,10.10
2011,05,28,08,48,10.10
2011,05,28,08,49,10.20
2011,05,28,08,50,10.20
2011,05,28,08,51,10.20
2011,05,28,08,52,10.20
2011,05,28,08,53,10.20
2011,05,28,08,54,10.10
2011,05,28,08,55,10.10
2011,05,28,08,56,10.10
2011,05,28,08,57,10.10
2011,05,28,08,58,10.10
2011,05,28,08,59,10.10
2011,05,28,09,00,10.10
2011,05,28,09,01,10.10
2011,05,28,09,02,10.20
2011,05,28,09,03,10.20
2011,05,28,09,04,10.20
2011,05,28,09,05,10.20
2011,05,28,09,06,10.20
2011,05,28,09,07,10.20
2011,05,28,09,08,10.10
2011,05,28,09,09,10.10
2011,05,28,09,10,10.10
2011,05,28,09,11,10.20
2011,05,28,09,12,10.20
2011,05,28,09,13,10.20
2011,05,28,09,14,10.10
2011,05,28,09,15,10.10
2011,05,28,09,16,10.10
2011,05,28,09,17,10.10
2011,05,28,09,18,10.10
2011,05,28,09,19,10.10
2011,05,28,09,20,10.10
2011,05,28,09,21,10.10
2011,05,28,09,22,10.10
2011,05,28,09,23,10.00
2011,05,28,09,24,10.10
2011,05,28,09,25,10.10
2011,05,28,09,26,10.10
2011,05,28,09,27,10.10
2011,05,28,09,28,10.10
2011,05,28,09,29,10.10
2011,05,28,09,30,10.10
2011,05,28,09,31,10.10
2011,05,28,09,32,10.10
2011,05,28,09,33,10.10
2011,05,28,09,34,10.10
2011,05,28,09,35,10.20
2011,05,28,09,36,10.20
2011,05,28,09,37,10.20
2011,05,28,09,38,10.20
2011,05,28,09,39,10.30
2011,05,28,09,40,10.40
2011,05,28,09,41,10.50
2011,05,28,09,42,10.60
2011,05,28,09,43,10.70
2011,05,28,09,44,10.70
2011,05,28,09,45,10.80
2011,05,28,09,46,10.80
2011,05,28,09,47,10.70
2011,05,28,09,48,10.60
2011,05,28,09,49,10.60
2011,05,28,09,50,10.60
2011,05,28,09,51,10.60
2011,05,28,09,52,10.60
2011,05,28,09,53,10.60
2011,05,28,09,54,10.60
2011,05,28,09,55,10.60
2011,05,28,09,56,10.60
2011,05,28,09,57,10.60
2011,05,28,09,58,10.70
2011,05,28,09,59,10.70
2011,05,28,10,00,10.70
2011,05,28,10,01,10.70
2011,05,28,10,02,10.70
2011,05,28,10,03,10.60
2011,05,28,10,04,10.60
2011,05,28,10,05,10.60
2011,05,28,10,06,10.60
2011,05,28,10,07,10.60
2011,05,28,10,08,10.60
2011,05,28,10,09,10.60
2011,05,28,10,10,10.60
2011,05,28,10,11,10.50
2011,05,28,10,12,10.50
2011,05,28,10,13,10.60
2011,05,28,10,14,10.50
2011,05,28,10,15,10.40
2011,05,28,10,16,10.40
2011,05,28,10,17,10.30
2011,05,28,10,18,10.20
2011,05,28,10,19,10.10
2011,05,28,10,20,10.10
2011,05,28,10,21,10.00
2011,05,28,10,22,9.90
2011,05,28,10,23,9.90
2011,05,28,10,24,10.00
2011,05,28,10,25,10.10
2011,05,28,10,26,10.10
2011,05,28,10,27,10.10
2011,05,28,10,28,10.20
2011,05,28,10,29,10.20
2011,05,28,10,30,10.20
2011,05,28,10,31,10.30
2011,05,28,10,32,10.30
2011,05,28,10,33,10.40
2011,05,28,10,34,10.40
2011,05,28,10,35,10.40
2011,05,28,10,36,10.30
2011,05,28,10,37,10.30
2011,05,28,10,38,10.20
2011,05,28,10,39,10.20
2011,05,28,10,40,10.20
2011,05,28,10,41,10.20
2011,05,28,10,42,10.20
2011,05,28,10,43,10.20
2011,05,28,10,44,10.20
2011,05,28,10,45,10.20
2011,05,28,10,46,10.20
2011,05,28,10,47,10.30
2011,05,28,10,48,10.30
2011,05,28,10,49,10.40
2011,05,28,10,50,10.40
2011,05,28,10,51,10.50
2011,05,28,10,52,10.60
2011,05,28,10,53,10.60
2011,05,28,10,54,10.60
2011,05,28,10,55,10.70
2011,05,28,10,56,10.70
2011,05,28,10,57,10.70
2011,05,28,10,58,10.70
2011,05,28,10,59,10.70
2011,05,28,11,00,10.70
2011,05,28,11,01,10.80
2011,05,28,11,02,10.90
2011,05,28,11,03,10.90
2011,05,28,11,04,11.00
2011,05,28,11,05,11.10
2011,05,28,11,06,11.10
2011,05,28,11,07,11.10
2011,05,28,11,08,11.10
2011,05,28,11,09,11.10
2011,05,28,11,10,11.10
2011,05,28,11,11,11.00
2011,05,28,11,12,10.90
2011,05,28,11,13,10.90
2011,05,28,11,14,11.00
2011,05,28,11,15,11.10
2011,05,28,11,16,11.10
2011,05,28,11,17,11.10
2011,05,28,11,18,11.10
2011,05,28,11,19,11.10
2011,05,28,11,20,11.00
2011,05,28,11,21,10.90
2011,05,28,11,22,11.00
2011,05,28,11,23,11.10
2011,05,28,11,24,11.10
2011,05,28,11,25,11.10
2011,05,28,11,26,11.10
2011,05,28,11,27,11.10
2011,05,28,11,28,11.10
2011,05,28,11,29,11.10
2011,05,28,11,30,11.10
2011,05,28,11,31,11.10
2011,05,28,11,32,11.10
2011,05,28,11,33,11.00
2011,05,28,11,34,11.10
2011,05,28,11,35,11.00
2011,05,28,11,36,11.00
2011,05,28,11,37,11.10
2011,05,28,11,38,11.10
2011,05,28,11,39,11.20
2011,05,28,11,40,11.20
2011,05,28,11,41,11.30
2011,05,28,11,42,11.30
2011,05,28,11,43,11.30
2011,05,28,11,44,11.30
2011,05,28,11,45,11.20
2011,05,28,11,46,11.10
2011,05,28,11,47,11.10
2011,05,28,11,48,11.10
2011,05,28,11,49,11.10
2011,05,28,11,50,11.20
2011,05,28,11,51,11.20
2011,05,28,11,52,11.10
2011,05,28,11,53,11.10
2011,05,28,11,54,11.20
2011,05,28,11,55,11.10
2011,05,28,11,56,11.10
2011,05,28,11,57,11.20
2011,05,28,11,58,11.10
2011,05,28,11,59,11.10
2011,05,28,12,00,11.00
2011,05,28,12,01,10.90
2011,05,28,12,02,11.00
2011,05,28,12,03,11.10
2011,05,28,12,04,11.20
2011,05,28,12,05,11.30
2011,05,28,12,06,11.40
2011,05,28,12,07,11.50
2011,05,28,12,08,11.60
2011,05,28,12,09,11.60
2011,05,28,12,10,11.60
2011,05,28,12,11,11.50
2011,05,28,12,12,11.40
2011,05,28,12,13,11.40
2011,05,28,12,14,11.50
2011,05,28,12,15,11.60
2011,05,28,12,16,11.70
2011,05,28,12,17,11.80
2011,05,28,12,18,11.80
2011,05,28,12,19,11.80
2011,05,28,12,20,11.90
2011,05,28,12,21,11.90
2011,05,28,12,22,11.80
2011,05,28,12,23,11.80
2011,05,28,12,24,11.90
2011,05,28,12,25,12.00
2011,05,28,12,26,12.00
2011,05,28,12,27,12.00
2011,05,28,12,28,12.00
2011,05,28,12,29,12.00
2011,05,28,12,30,12.00
2011,05,28,12,31,12.00
2011,05,28,12,32,12.10
2011,05,28,12,33,12.10
2011,05,28,12,34,12.30
2011,05,28,12,35,12.30
2011,05,28,12,36,12.30
2011,05,28,12,37,12.20
2011,05,28,12,38,12.20
2011,05,28,12,39,12.10
2011,05,28,12,40,12.00
2011,05,28,12,41,12.00
2011,05,28,12,42,12.00
2011,05,28,12,43,11.90
2011,05,28,12,44,11.90
2011,05,28,12,45,11.90
2011,05,28,12,46,11.80
2011,05,28,12,47,11.80
2011,05,28,12,48,11.90
2011,05,28,12,49,11.90
2011,05,28,12,50,11.90
2011,05,28,12,51,11.90
2011,05,28,12,52,12.00
2011,05,28,12,53,11.90
2011,05,28,12,54,12.00
2011,05,28,12,55,12.00
2011,05,28,12,56,12.00
2011,05,28,12,57,11.90
2011,05,28,12,58,12.00
2011,05,28,12,59,12.00
2011,05,28,13,00,12.10
2011,05,28,13,01,12.10
2011,05,28,13,02,12.20
2011,05,28,13,03,12.20
2011,05,28,13,04,12.20
2011,05,28,13,05,12.40
2011,05,28,13,06,12.50
2011,05,28,13,07,12.60
2011,05,28,13,08,12.70
2011,05,28,13,09,12.80
2011,05,28,13,10,12.90
2011,05,28,13,11,13.00
2011,05,28,13,12,13.10
2011,05,28,13,13,13.10
2011,05,28,13,14,13.20
2011,05,28,13,15,13.10
2011,05,28,13,16,13.00
2011,05,28,13,17,12.90
2011,05,28,13,18,12.80
2011,05,28,13,19,12.70
2011,05,28,13,20,12.70
2011,05,28,13,21,12.70
2011,05,28,13,22,12.70
2011,05,28,13,23,12.80
2011,05,28,13,24,12.80
2011,05,28,13,25,12.80
2011,05,28,13,26,12.80
2011,05,28,13,27,12.80
2011,05,28,13,28,12.90
2011,05,28,13,29,13.00
2011,05,28,13,30,13.10
2011,05,28,13,31,13.20
2011,05,28,13,32,13.30
2011,05,28,13,33,13.40
2011,05,28,13,34,13.40
2011,05,28,13,35,13.50
2011,05,28,13,36,13.50
2011,05,28,13,37,13.50
2011,05,28,13,38,13.40
2011,05,28,13,39,13.40
2011,05,28,13,40,13.50
2011,05,28,13,41,13.50
2011,05,28,13,42,13.50
2011,05,28,13,43,13.50
2011,05,28,13,44,13.50
2011,05,28,13,45,13.50
2011,05,28,13,46,13.50
2011,05,28,13,47,13.50
2011,05,28,13,48,13.50
2011,05,28,13,49,13.50
2011,05,28,13,50,13.40
2011,05,28,13,51,13.40
2011,05,28,13,52,13.40
2011,05,28,13,53,13.40
2011,05,28,13,54,13.40
2011,05,28,13,55,13.40
2011,05,28,13,56,13.50
2011,05,28,13,57,13.50
2011,05,28,13,58,13.50
2011,05,28,13,59,13.50
2011,05,28,14,00,13.50
2011,05,28,14,01,13.50
2011,05,28,14,02,13.50
2011,05,28,14,03,13.50
2011,05,28,14,04,13.40
2011,05,28,14,05,13.30
2011,05,28,14,06,13.30
2011,05,28,14,07,13.30
2011,05,28,14,08,13.30
2011,05,28,14,09,13.20
2011,05,28,14,10,13.20
2011,05,28,14,11,13.30
2011,05,28,14,12,13.30
2011,05,28,14,13,13.40
2011,05,28,14,14,13.40
2011,05,28,14,15,13.40
2011,05,28,14,16,13.40
2011,05,28,14,17,13.30
2011,05,28,14,18,13.40
2011,05,28,14,19,13.40
2011,05,28,14,20,13.50
2011,05,28,14,21,13.50
2011,05,28,14,22,13.50
2011,05,28,14,23,13.50
2011,05,28,14,24,13.60
2011,05,28,14,25,13.60
2011,05,28,14,26,13.60
2011,05,28,14,27,13.60
2011,05,28,14,28,13.60
2011,05,28,14,29,13.60
2011,05,28,14,30,13.70
2011,05,28,14,31,13.70
2011,05,28,14,32,13.70
2011,05,28,14,33,13.70
2011,05,28,14,34,13.70
2011,05,28,14,35,13.70
2011,05,28,14,36,13.70
2011,05,28,14,37,13.80
2011,05,28,14,38,13.90
2011,05,28,14,39,14.00
2011,05,28,14,40,14.00
2011,05,28,14,41,14.00
2011,05,28,14,42,14.00
2011,05,28,14,43,14.00
2011,05,28,14,44,14.00
2011,05,28,14,45,14.00
2011,05,28,14,46,14.10
2011,05,28,14,47,14.20
2011,05,28,14,48,14.40
2011,05,28,14,49,14.40
2011,05,28,14,50,14.60
2011,05,28,14,51,14.60
2011,05,28,14,52,14.60
2011,05,28,14,53,14.60
2011,05,28,14,54,14.70
2011,05,28,14,55,14.70
2011,05,28,14,56,14.60
2011,05,28,14,57,14.60
2011,05,28,14,58,14.50
2011,05,28,14,59,14.50
2011,05,28,15,00,14.40
2011,05,28,15,01,14.30
2011,05,28,15,02,14.20
2011,05,28,15,03,14.20
2011,05,28,15,04,14.20
2011,05,28,15,05,14.20
2011,05,28,15,06,14.20
2011,05,28,15,07,14.20
2011,05,28,15,08,14.20
2011,05,28,15,09,14.20
2011,05,28,15,10,14.10
2011,05,28,15,11,14.00
2011,05,28,15,12,13.90
2011,05,28,15,13,13.80
2011,05,28,15,14,13.80
2011,05,28,15,15,13.70
2011,05,28,15,16,13.60
2011,05,28,15,17,13.60
2011,05,28,15,18,13.60
2011,05,28,15,19,13.50
2011,05,28,15,20,13.50
2011,05,28,15,21,13.50
2011,05,28,15,22,13.50
2011,05,28,15,23,13.50
2011,05,28,15,24,13.60
2011,05,28,15,25,13.60
2011,05,28,15,26,13.60
2011,05,28,15,27,13.70
2011,05,28,15,28,13.70
2011,05,28,15,29,13.80
2011,05,28,15,30,13.90
2011,05,28,15,31,14.00
2011,05,28,15,32,14.10
2011,05,28,15,33,14.10
2011,05,28,15,34,14.10
2011,05,28,15,35,14.00
2011,05,28,15,36,14.00
2011,05,28,15,37,14.00
2011,05,28,15,38,14.00
2011,05,28,15,39,14.10
2011,05,28,15,40,14.10
2011,05,28,15,41,14.20
2011,05,28,15,42,14.20
2011,05,28,15,43,14.20
2011,05,28,15,44,14.10
2011,05,28,15,45,14.10
2011,05,28,15,46,14.10
2011,05,28,15,47,14.20
2011,05,28,15,48,14.20
2011,05,28,15,49,14.20
2011,05,28,15,50,14.20
2011,05,28,15,51,14.20
2011,05,28,15,52,14.20
2011,05,28,15,53,14.20
2011,05,28,15,54,14.30
2011,05,28,15,55,14.40
2011,05,28,15,56,14.50
2011,05,28,15,57,14.60
2011,05,28,15,58,14.70
2011,05,28,15,59,14.80
2011,05,28,16,00,14.90
2011,05,28,16,01,15.00
2011,05,28,16,02,15.10
2011,05,28,16,03,15.10
2011,05,28,16,04,15.10
2011,05,28,16,05,15.10
2011,05,28,16,06,15.10
2011,05,28,16,07,15.10
2011,05,28,16,08,15.10
2011,05,28,16,09,15.10
2011,05,28,16,10,15.00
2011,05,28,16,11,15.00
2011,05,28,16,12,15.00
2011,05,28,16,13,14.90
2011,05,28,16,14,14.80
2011,05,28,16,15,14.80
2011,05,28,16,16,14.70
2011,05,28,16,17,14.60
2011,05,28,16,18,14.50
2011,05,28,16,19,14.40
2011,05,28,16,20,14.30
2011,05,28,16,21,14.20
2011,05,28,16,22,14.20
2011,05,28,16,23,14.20
2011,05,28,16,24,14.00
2011,05,28,16,25,14.00
2011,05,28,16,26,13.90
2011,05,28,16,27,13.90
2011,05,28,16,28,13.80
2011,05,28,16,29,13.70
2011,05,28,16,30,13.70
2011,05,28,16,31,13.70
2011,05,28,16,32,13.60
2011,05,28,16,33,13.60
2011,05,28,16,34,13.50
2011,05,28,16,35,13.40
2011,05,28,16,36,13.30
2011,05,28,16,37,13.30
2011,05,28,16,38,13.30
2011,05,28,16,39,13.20
2011,05,28,16,40,13.30
2011,05,28,16,41,13.30
2011,05,28,16,42,13.30
2011,05,28,16,43,13.30
2011,05,28,16,44,13.30
2011,05,28,16,45,13.30
2011,05,28,16,46,13.30
2011,05,28,16,47,13.30
2011,05,28,16,48,13.30
2011,05,28,16,49,13.30
2011,05,28,16,50,13.30
2011,05,28,16,51,13.30
2011,05,28,16,52,13.30
2011,05,28,16,53,13.30
2011,05,28,16,54,13.30
2011,05,28,16,55,13.30
2011,05,28,16,56,13.30
2011,05,28,16,57,13.30
2011,05,28,16,58,13.30
2011,05,28,16,59,13.30
2011,05,28,17,00,13.30
2011,05,28,17,01,13.30
2011,05,28,17,02,13.30
2011,05,28,17,03,13.40
2011,05,28,17,04,13.50
2011,05,28,17,05,13.60
2011,05,28,17,06,13.60
2011,05,28,17,07,13.70
2011,05,28,17,08,13.80
2011,05,28,17,09,13.90
2011,05,28,17,10,13.90
2011,05,28,17,11,14.00
2011,05,28,17,12,13.90
2011,05,28,17,13,13.90
2011,05,28,17,14,13.90
2011,05,28,17,15,13.90
2011,05,28,17,16,14.00
2011,05,28,17,17,14.00
2011,05,28,17,18,14.10
2011,05,28,17,19,14.10
2011,05,28,17,20,14.10
2011,05,28,17,21,14.10
2011,05,28,17,22,14.10
2011,05,28,17,23,14.10
2011,05,28,17,24,14.10
2011,05,28,17,25,14.10
2011,05,28,17,26,14.20
2011,05,28,17,27,14.20
2011,05,28,17,28,14.20
2011,05,28,17,29,14.20
2011,05,28,17,30,14.20
2011,05,28,17,31,14.20
2011,05,28,17,32,14.20
2011,05,28,17,33,14.20
2011,05,28,17,34,14.20
2011,05,28,17,35,14.40
2011,05,28,17,36,14.50
2011,05,28,17,37,14.60
2011,05,28,17,38,14.70
2011,05,28,17,39,14.80
2011,05,28,17,40,14.90
2011,05,28,17,41,15.00